カタログに戻る

OPS 5268

DMSP 5A F3

運用中気象SSO
NORAD 4953·PAYLOAD·🇺🇸 United States

打ち上げ Feb 17, 1971 から Vandenberg Space Force Base

Loading…

次のパス

TLE

Source: Space-Track
1  4953U 71012A   26221.62332936  .00000106  00000-0  45219-4 0  9991
2  4953  98.4745  90.9192 0035998 266.4525  93.2547 14.42197496906488

AllMySatでOPS 5268をリアルタイム追跡

Download on the App Store